Content
SEND FEEDBACK

Daily
Averages
Monthly
Summary
United States of America

HARRISONBURG, VIRGINIA


Home > North America > United States > Virginia
Elevation: 1186 feet     Latitude: 38 16N     Longitude: 078 54W

WEATHER
 
SELECT A DAY
Number of Records: 456,470;   Date Range: 1/1/95 - 7/29/14
 
SHARE

PRINT THIS DATA

[ ← Previous Day ]
WEATHER ALMANAC - JUNE 18, 2014
[ Next Day → ]
[ °C ]   °F
Weather ElementAverageHighLow
Temperature79.6 °F92.7 °F (3:55 pm)63.3 °F (5:55 am)
Dewpoint62.6 °F66.7 °F (7:15 pm)56.8 °F (4:35 pm)
Humidity59.2 %90 % (5:55 am)31 % (3:35 pm)
Barometer30.08 in30.11 in (11:35 am)30.05 in (5:55 pm)
Wind Speed3.1 mph11.5 mph (12:15 pm)
Wind Gust26.5 mph (4:55 pm)
Weather ElementAverage
Visibility9.6 mi
Wind DirectionSE (138.3 °)

Weather ElementTotal
Precipitation---
Cooling Degree Days13 (Base 65)
Growing Degree Days28 (Base 50)
Averaged from 66 records on June 18, 2014
WEATHER CONDITIONS BREAKOUT
WIND DIRECTION BREAKOUT
WEATHER BY HOUR - JUNE 18, 2014
[ °C ]   °F
Local TimeTemperatureDewpointHumidityBarometerVisibilityWind DirectionWind SpeedGust SpeedPrecipitationEventsConditions
12:35 AM73.8 °F64.2 °F72 %30.08 in10.0 miSouth (180°)3.5 mphClear
12:55 AM73.0 °F64.0 °F73 %30.08 in10.0 miCalmClear
1:15 AM72.7 °F63.7 °F73 %30.08 in10.0 miSSE (160°)4.6 mphClear
1:35 AM70.9 °F63.3 °F77 %30.08 in10.0 miCalmClear
2:15 AM70.9 °F62.8 °F75 %30.09 in10.0 miCalmClear
2:35 AM70.5 °F62.8 °F76 %30.09 in10.0 miCalmClear
2:55 AM67.3 °F62.6 °F85 %30.09 in10.0 miCalmClear
3:15 AM66.6 °F61.3 °F83 %30.10 in10.0 miCalmClear
3:35 AM64.9 °F60.6 °F86 %30.10 in10.0 miCalmClear
3:55 AM65.3 °F61.5 °F88 %30.09 in7.0 miCalmClear
4:15 AM66.2 °F61.3 °F84 %30.10 in10.0 miCalmClear
4:35 AM66.6 °F61.3 °F83 %30.10 in10.0 miCalmClear
4:55 AM64.8 °F60.4 °F86 %30.10 in7.0 miCalmClear
5:15 AM63.5 °F60.1 °F89 %30.10 in7.0 miCalmClear
5:35 AM64.2 °F60.3 °F87 %30.10 in7.0 miCalmClear
5:55 AM63.3 °F60.3 °F90 %30.09 in5.0 miSW (230°)3.5 mphClear
6:15 AM64.0 °F60.8 °F89 %30.09 in5.0 miCalmClear
6:35 AM65.5 °F61.7 °F88 %30.09 in7.0 miCalmClear
6:55 AM68.5 °F62.6 °F81 %30.09 in10.0 miCalmClear
7:15 AM70.5 °F63.1 °F77 %30.10 in10.0 miCalmClear
7:35 AM72.7 °F63.9 °F74 %30.10 in10.0 miSW (230°)4.6 mphClear
7:55 AM75.2 °F64.4 °F69 %30.10 in10.0 miSW (230°)4.6 mphClear
8:15 AM76.6 °F64.8 °F67 %30.10 in10.0 miSSE (150°)4.6 mphClear
8:35 AM78.4 °F65.7 °F65 %30.10 in10.0 miSouth (170°)3.5 mphClear
8:55 AM81.7 °F64.6 °F56 %30.10 in10.0 miSSW (210°)5.8 mphClear
9:15 AM82.6 °F64.6 °F54 %30.10 in10.0 miSW (220°)5.8 mphClear
9:35 AM83.7 °F64.8 °F53 %30.09 in10.0 miWSW (240°)5.8 mphClear
10:15 AM85.5 °F64.2 °F49 %30.09 in10.0 miWSW (240°)4.6 mphClear
10:35 AM86.9 °F62.4 °F44 %30.09 in10.0 miNW (310°)5.8 mphClear
10:55 AM88.0 °F62.4 °F42 %30.10 in10.0 miWest (280°)4.6 mphClear
11:15 AM88.5 °F60.6 °F39 %30.10 in10.0 miWNW (290°)9.2 mphClear
11:35 AM88.9 °F61.3 °F40 %30.11 in10.0 miNW (310°)10.4 mphScattered Clouds
11:55 AM89.6 °F60.8 °F38 %30.11 in10.0 miWNW (300°)10.4 mphScattered Clouds
12:15 PM90.1 °F60.1 °F36 %30.11 in10.0 miNW (310°)11.5 mphClear
12:35 PM90.7 °F59.5 °F35 %30.11 in10.0 miWest (270°)8.1 mphClear
12:55 PM90.0 °F59.4 °F36 %30.11 in10.0 miNW (320°)4.6 mph10.4 mphScattered Clouds
1:15 PM89.8 °F59.9 °F36 %30.10 in10.0 miNNW (330°)4.6 mphMostly Cloudy
1:35 PM90.1 °F59.5 °F36 %30.09 in10.0 miWNW (290°)3.5 mphMostly Cloudy
2:15 PM92.3 °F58.8 °F32 %30.09 in10.0 miWNW (290°)6.9 mphMostly Cloudy
2:35 PM92.3 °F59.2 °F33 %30.09 in10.0 miCalmScattered Clouds
2:55 PM91.6 °F57.7 °F32 %30.09 in10.0 miNW (310°)4.6 mphMostly Cloudy
3:35 PM92.5 °F58.1 °F31 %30.08 in10.0 miNNW (330°)3.5 mphMostly Cloudy
3:55 PM92.7 °F57.7 °F31 %30.07 in10.0 miWNW (300°)3.5 mphMostly Cloudy
4:35 PM90.7 °F56.8 °F32 %30.06 in10.0 miWSW (250°)5.8 mphScattered Clouds
4:55 PM86.0 °F64.9 °F49 %30.07 in7.0 miSouth (170°)6.9 mph26.5 mphRainLight Rain
5:15 PM87.1 °F64.9 °F48 %30.06 in10.0 miSSE (150°)5.8 mphScattered Clouds
5:35 PM88.3 °F62.8 °F42 %30.06 in10.0 miSSE (150°)3.5 mphMostly Cloudy
5:55 PM90.5 °F60.3 °F36 %30.05 in10.0 miSE (140°)3.5 mphScattered Clouds
6:15 PM89.2 °F64.9 °F44 %30.05 in10.0 miESE (120°)5.8 mphClear
6:35 PM88.7 °F66.2 °F47 %30.05 in10.0 miSE (140°)3.5 mphScattered Clouds
6:55 PM88.7 °F65.8 °F47 %30.05 in10.0 miSE (140°)4.6 mphScattered Clouds
7:15 PM88.7 °F66.7 °F48 %30.05 in10.0 miCalmClear
7:35 PM87.4 °F65.5 °F48 %30.05 in10.0 miSW (220°)3.5 mphClear
7:55 PM86.2 °F64.4 °F48 %30.05 in10.0 miSW (220°)4.6 mphClear
8:15 PM83.8 °F65.5 °F54 %30.05 in10.0 miSW (220°)3.5 mphClear
8:35 PM82.4 °F66.0 °F57 %30.05 in10.0 miCalmClear
8:55 PM80.2 °F66.6 °F63 %30.06 in10.0 miCalmScattered Clouds
9:15 PM78.4 °F65.3 °F64 %30.06 in10.0 miCalmScattered Clouds
9:35 PM77.2 °F64.6 °F65 %30.07 in10.0 miCalmClear
9:55 PM77.2 °F63.5 °F63 %30.07 in10.0 miSW (220°)4.6 mphClear
10:15 PM76.8 °F63.7 °F64 %30.08 in10.0 miSSW (210°)4.6 mphClear
10:35 PM77.0 °F63.5 °F63 %30.08 in10.0 miCalmClear
10:55 PM77.7 °F63.7 °F62 %30.08 in10.0 miCalmClear
11:15 PM76.8 °F64.0 °F65 %30.08 in10.0 miCalmClear
11:35 PM75.7 °F63.7 °F66 %30.08 in10.0 miCalmClear
11:55 PM77.2 °F62.6 °F61 %30.08 in10.0 miWest (280°)4.6 mphClear
Hourly data recorded from KSHD, located miles away from Harrisonburg, Virginia







STORIES FROM OUR PARTNERS